GW3496 Weather Reports


Display with metric or nautical units.
time (UTC)temp
F
wind
direction
speed
MPH
gust
MPH
rain 1hr
in
rain 24hr
in
rain mn
in
humidity
%
barometer
mb
20240523120033 73 257 2.0 3.0 0.00 0.00 0.00 80 1011.1
20240523114529 72 276 0.0 7.0 0.00 0.00 0.00 81 1010.8
20240523113036 72 254 2.0 4.0 0.00 0.00 0.00 80 1010.7
20240523111556 72 244 0.0 4.0 0.00 0.00 0.00 81 1010.6
20240523110040 72 263 2.0 6.0 0.00 0.00 0.00 81 1010.4
20240523104535 72 201 2.0 8.0 0.00 0.00 0.00 81 1010.4
20240523103035 72 263 3.0 9.0 0.00 0.00 0.00 82 1010.4
20240523101544 72 212 2.0 7.0 0.00 0.00 0.00 81 1009.9
20240523100056 72 167 3.0 7.0 0.00 0.00 0.00 81 1009.8
20240523094550 72 208 5.0 8.0 0.00 0.00 0.00 81 1009.7
20240523093040 72 139 4.0 7.0 0.00 0.00 0.00 80 1009.6
20240523091544 73 232 3.0 8.0 0.00 0.00 0.00 79 1009.6
20240523090103 73 291 3.0 7.0 0.00 0.00 0.00 79 1009.5
20240523084536 73 236 7.0 12.0 0.00 0.00 0.00 79 1009.4
20240523083044 73 273 2.0 4.0 0.00 0.00 0.00 79 1009.7
20240523081540 73 175 3.0 9.0 0.00 0.00 0.00 78 1009.5
20240523080046 74 221 4.0 9.0 0.00 0.00 0.00 77 1009.4
20240523074541 74 240 3.0 9.0 0.00 0.00 0.00 77 1009.6
20240523073042 74 194 4.0 9.0 0.00 0.00 0.00 77 1009.5
20240523071542 74 209 4.0 10.0 0.00 0.00 0.00 76 1009.7
20240523070044 75 190 4.0 8.0 0.00 0.00 0.00 75 1009.9
20240523064542 75 184 3.0 7.0 0.00 0.00 0.00 74 1010.0
20240523063037 76 215 6.0 10.0 0.00 0.00 0.00 74 1010.1
20240523061549 76 196 5.0 10.0 0.00 0.00 0.00 74 1010.3
20240523060043 76 207 4.0 14.0 0.00 0.00 0.00 74 1010.4
20240523054539 76 213 7.0 11.0 0.00 0.00 0.00 74 1010.4
20240523053054 76 196 7.0 11.0 0.00 0.00 0.00 74 1010.8
20240523051540 76 206 5.0 11.0 0.00 0.00 0.00 73 1010.9
20240523050055 76 184 5.0 11.0 0.00 0.00 0.00 73 1011.1
20240523044551 77 213 5.0 10.0 0.00 0.00 0.00 73 1011.0
20240523043050 77 218 5.0 10.0 0.00 0.00 0.00 72 1011.3
20240523041539 78 163 5.0 11.0 0.00 0.00 0.00 71 1011.2
20240523040042 78 196 8.0 10.0 0.00 0.00 0.00 71 1011.3
20240523034542 79 206 6.0 10.0 0.00 0.00 0.00 70 1011.0
20240523033036 79 156 6.0 12.0 0.00 0.00 0.00 69 1011.1
20240523031539 79 214 8.0 14.0 0.00 0.00 0.00 69 1011.1
20240523030049 80 207 8.0 13.0 0.00 0.00 0.00 68 1011.0
20240523024521 80 172 6.0 14.0 0.00 0.00 0.00 67 1011.2
20240523023036 81 193 9.0 16.0 0.00 0.00 0.00 66 1010.9
20240523021543 81 207 8.0 12.0 0.00 0.00 0.00 66 1010.8
20240523020104 81 223 5.0 9.0 0.00 0.00 0.00 67 1011.0
20240523014542 82 181 6.0 12.0 0.00 0.00 0.00 66 1010.9
20240523013040 83 133 3.0 9.0 0.00 0.00 0.00 66 1010.7
20240523011606 83 190 4.0 9.0 0.00 0.00 0.00 65 1010.8
20240523010048 83 184 6.0 11.0 0.00 0.00 0.00 65 1010.4
20240523004547 83 188 6.0 10.0 0.00 0.00 0.00 64 1010.5
20240523003048 84 198 6.0 12.0 0.00 0.00 0.00 64 1010.5
20240523001549 85 205 6.0 12.0 0.00 0.00 0.00 62 1010.6
20240523000045 85 153 8.0 16.0 0.00 0.00 0.00 61 1010.0
20240522234546 86 171 7.0 17.0 0.00 0.00 0.00 60 1010.3
20240522233049 86 159 6.0 15.0 0.00 0.00 0.00 59 1010.1
20240522231556 87 161 7.0 15.0 0.00 0.00 0.00 59 1010.2
20240522230039 87 199 8.0 14.0 0.00 0.00 0.00 58 1010.3
20240522224543 87 162 5.0 11.0 0.00 0.00 0.00 58 1009.9
20240522223042 88 220 8.0 17.0 0.00 0.00 0.00 56 1009.4
20240522221547 89 128 7.0 13.0 0.00 0.00 0.00 55 1009.3
20240522220046 89 186 6.0 13.0 0.00 0.00 0.00 54 1009.8
20240522214545 88 193 8.0 15.0 0.00 0.00 0.00 55 1009.6
20240522213055 89 184 6.0 15.0 0.00 0.00 0.00 54 1009.9
20240522211549 89 219 5.0 15.0 0.00 0.00 0.00 55 1010.6
20240522210055 88 181 6.0 14.0 0.00 0.00 0.00 56 1010.1
20240522204547 89 188 6.0 14.0 0.00 0.00 0.00 54 1010.6
20240522203015 89 198 8.0 14.0 0.00 0.00 0.00 53 1010.3
20240522201513 90 176 8.0 16.0 0.00 0.00 0.00 52 1010.8
20240522200014 90 202 9.0 15.0 0.00 0.00 0.00 52 1010.8
20240522194516 89 189 7.0 14.0 0.00 0.00 0.00 53 1010.8
20240522193023 89 157 5.0 14.0 0.00 0.00 0.00 51 1010.9
20240522191522 90 221 6.0 12.0 0.00 0.00 0.00 50 1011.4
20240522190013 89 169 8.0 15.0 0.00 0.00 0.00 52 1011.3
20240522184514 88 166 8.0 13.0 0.00 0.00 0.00 55 1011.4
20240522183020 89 227 5.0 11.0 0.00 0.00 0.00 55 1011.6
20240522181515 88 104 5.0 12.0 0.00 0.00 0.00 53 1011.6
20240522180016 88 239 4.0 11.0 0.00 0.00 0.00 54 1012.0
20240522174513 86 244 3.0 9.0 0.00 0.00 0.00 59 1012.1
20240522173014 86 209 6.0 11.0 0.00 0.00 0.00 56 1012.3
20240522171510 85 266 5.0 17.0 0.00 0.00 0.00 58 1012.6
20240522170017 85 267 4.0 15.0 0.00 0.00 0.00 57 1012.6
20240522164512 85 260 5.0 13.0 0.00 0.00 0.00 58 1012.7
20240522163017 84 200 7.0 11.0 0.00 0.00 0.00 58 1012.9
20240522161519 84 259 2.0 10.0 0.00 0.00 0.00 61 1012.9
20240522160020 84 164 5.0 10.0 0.00 0.00 0.00 60 1013.0
20240522154516 83 157 5.0 12.0 0.00 0.00 0.00 61 1013.2
20240522153022 82 190 8.0 14.0 0.00 0.00 0.00 63 1013.2
20240522151521 80 250 5.0 12.0 0.00 0.00 0.00 65 1013.5
20240522150015 80 183 4.0 12.0 0.00 0.00 0.00 66 1013.4
20240522144514 80 185 7.0 12.0 0.00 0.00 0.00 66 1013.6
20240522143019 78 136 3.0 10.0 0.00 0.00 0.00 69 1013.6
20240522141513 78 198 4.0 9.0 0.00 0.00 0.00 69 1013.7
20240522140015 77 196 5.0 9.0 0.00 0.00 0.00 70 1013.6
20240522134514 76 179 4.0 9.0 0.00 0.00 0.00 71 1013.6
20240522133019 75 174 2.0 8.0 0.00 0.00 0.00 73 1013.5
20240522131519 74 161 3.0 11.0 0.00 0.00 0.00 74 1013.8
20240522130028 73 223 4.0 8.0 0.00 0.00 0.00 75 1013.9
20240522124512 72 208 4.0 11.0 0.00 0.00 0.00 78 1013.7
20240522123022 71 216 3.0 8.0 0.00 0.00 0.00 79 1013.8
20240522121517 69 206 4.0 8.0 0.00 0.00 0.00 82 1013.7